[Date Prev][Date Next][Thread Prev][Thread Next] - [Date Index][Thread Index][Author Index]
2 Line ISS Keps 3-23
- Subject: [sarex] 2 Line ISS Keps 3-23
- From: "Dave Larsen PhD" <doc@xxxxxxxxxxx>
- Date: Tue, 23 Mar 2004 02:03:11 -0800
ISS
1 25544U 98067A 04083.34712830 .00022985 00000-0 21446-3 0 4231
2 25544 51.6293 43.0603 0010586 311.1336 210.0423 15.67154162304841
----
Via the sarex mailing list at AMSAT.ORG courtesy of AMSAT-NA.
To unsubscribe, send "unsubscribe sarex" to Majordomo@amsat.org
AMSAT Home